TimeMST,TemperatureF,Dew PointF,Humidity,Sea Level PressureIn,VisibilityMPH,Wind Direction,Wind SpeedMPH,Gust SpeedMPH,PrecipitationIn,Events,Conditions,WindDirDegrees,DateUTC
12:15 AM,28.4,19.4,69,30.19,10.0,West,5.8,-,N/A,,Clear,280,2013-01-22 07:15:00
12:55 AM,28.4,19.4,69,30.19,10.0,West,4.6,-,N/A,,Clear,280,2013-01-22 07:55:00
1:15 AM,26.6,17.6,69,30.19,10.0,West,3.5,-,N/A,,Clear,260,2013-01-22 08:15:00
1:55 AM,26.6,17.6,69,30.20,10.0,Calm,Calm,-,N/A,,Clear,0,2013-01-22 08:55:00
2:15 AM,24.8,17.6,74,30.20,10.0,Calm,Calm,-,N/A,,Clear,0,2013-01-22 09:15:00
2:35 AM,24.8,17.6,74,30.20,10.0,Calm,Calm,-,N/A,,Clear,0,2013-01-22 09:35:00
2:55 AM,24.8,17.6,74,30.20,10.0,NNE,3.5,-,N/A,,Clear,30,2013-01-22 09:55:00
3:15 AM,26.6,17.6,69,30.19,10.0,Calm,Calm,-,N/A,,Clear,0,2013-01-22 10:15:00
3:35 AM,26.6,17.6,69,30.19,10.0,Calm,Calm,-,N/A,,Clear,0,2013-01-22 10:35:00
3:55 AM,24.8,17.6,74,30.18,10.0,West,3.5,-,N/A,,Clear,260,2013-01-22 10:55:00
4:15 AM,24.8,15.8,69,30.18,10.0,SW,6.9,-,N/A,,Clear,230,2013-01-22 11:15:00
4:35 AM,26.6,15.8,64,30.18,10.0,Calm,Calm,-,N/A,,Clear,0,2013-01-22 11:35:00
4:55 AM,24.8,15.8,69,30.19,10.0,Calm,Calm,-,N/A,,Clear,0,2013-01-22 11:55:00
5:15 AM,26.6,15.8,64,30.19,10.0,Calm,Calm,-,N/A,,Clear,0,2013-01-22 12:15:00
5:35 AM,24.8,15.8,69,30.20,10.0,ENE,3.5,-,N/A,,Clear,60,2013-01-22 12:35:00
5:55 AM,23.0,15.8,74,30.21,10.0,North,6.9,-,N/A,,Clear,360,2013-01-22 12:55:00
6:35 AM,23.0,15.8,74,30.22,10.0,NW,3.5,-,N/A,,Clear,310,2013-01-22 13:35:00
6:55 AM,23.0,15.8,74,30.22,10.0,NW,3.5,-,N/A,,Clear,310,2013-01-22 13:55:00
7:15 AM,23.0,15.8,74,30.22,10.0,NNW,3.5,-,N/A,,Clear,340,2013-01-22 14:15:00
7:35 AM,24.8,15.8,69,30.23,10.0,WNW,3.5,-,N/A,,Clear,300,2013-01-22 14:35:00
7:55 AM,28.4,15.8,59,30.23,10.0,Calm,Calm,-,N/A,,Clear,0,2013-01-22 14:55:00
8:35 AM,32.0,17.6,55,30.23,10.0,North,3.5,-,N/A,,Clear,10,2013-01-22 15:35:00
8:55 AM,32.0,19.4,60,30.24,10.0,Calm,Calm,-,N/A,,Clear,0,2013-01-22 15:55:00
9:15 AM,35.6,19.4,52,30.24,10.0,Calm,Calm,-,N/A,,Clear,0,2013-01-22 16:15:00
9:35 AM,37.4,21.2,52,30.24,10.0,SE,4.6,-,N/A,,Clear,140,2013-01-22 16:35:00
9:55 AM,39.2,23.0,52,30.24,10.0,SE,4.6,-,N/A,,Clear,140,2013-01-22 16:55:00
10:15 AM,41.0,23.0,49,30.24,10.0,SSE,5.8,-,N/A,,Clear,160,2013-01-22 17:15:00
10:35 AM,44.6,23.0,43,30.24,10.0,SE,3.5,-,N/A,,Clear,130,2013-01-22 17:35:00
10:55 AM,46.4,23.0,40,30.24,10.0,SE,4.6,-,N/A,,Clear,140,2013-01-22 17:55:00
11:15 AM,48.2,23.0,37,30.22,10.0,SE,4.6,-,N/A,,Clear,140,2013-01-22 18:15:00
11:35 AM,48.2,23.0,37,30.21,10.0,SE,4.6,-,N/A,,Clear,140,2013-01-22 18:35:00
11:55 AM,50.0,23.0,35,30.20,10.0,ESE,3.5,-,N/A,,Clear,110,2013-01-22 18:55:00
12:15 PM,53.6,24.8,33,30.18,10.0,SSE,6.9,-,N/A,,Clear,150,2013-01-22 19:15:00
12:35 PM,55.4,21.2,26,30.17,10.0,SE,5.8,-,N/A,,Clear,140,2013-01-22 19:35:00
12:55 PM,57.2,23.0,27,30.16,10.0,SSE,6.9,-,N/A,,Clear,150,2013-01-22 19:55:00
1:15 PM,59.0,19.4,22,30.15,10.0,SSE,4.6,-,N/A,,Clear,160,2013-01-22 20:15:00
1:35 PM,60.8,17.6,19,30.14,10.0,ESE,5.8,-,N/A,,Clear,120,2013-01-22 20:35:00
1:55 PM,62.6,17.6,18,30.13,10.0,SE,9.2,-,N/A,,Clear,130,2013-01-22 20:55:00
2:15 PM,64.4,19.4,18,30.12,10.0,SSE,9.2,-,N/A,,Clear,150,2013-01-22 21:15:00
2:35 PM,66.2,17.6,15,30.12,10.0,SE,6.9,-,N/A,,Clear,140,2013-01-22 21:35:00
2:55 PM,66.2,19.4,17,30.12,10.0,SSE,11.5,-,N/A,,Clear,150,2013-01-22 21:55:00
3:15 PM,66.2,21.2,18,30.12,10.0,SSE,13.8,-,N/A,,Clear,160,2013-01-22 22:15:00
3:35 PM,64.4,24.8,22,30.12,10.0,South,13.8,-,N/A,,Clear,170,2013-01-22 22:35:00
3:55 PM,64.4,23.0,21,30.12,10.0,South,11.5,-,N/A,,Clear,170,2013-01-22 22:55:00
4:15 PM,64.4,23.0,21,30.12,10.0,SSE,10.4,-,N/A,,Clear,160,2013-01-22 23:15:00
4:35 PM,62.6,24.8,24,30.12,10.0,SSE,12.7,-,N/A,,Clear,160,2013-01-22 23:35:00
4:55 PM,60.8,24.8,25,30.12,10.0,SSE,10.4,-,N/A,,Clear,160,2013-01-22 23:55:00
5:15 PM,57.2,23.0,27,30.12,10.0,SSE,8.1,-,N/A,,Clear,160,2013-01-23 00:15:00
5:35 PM,53.6,23.0,30,30.12,10.0,South,8.1,-,N/A,,Clear,170,2013-01-23 00:35:00
5:55 PM,51.8,23.0,33,30.13,10.0,South,8.1,-,N/A,,Clear,170,2013-01-23 00:55:00
6:15 PM,50.0,23.0,35,30.13,10.0,South,8.1,-,N/A,,Clear,170,2013-01-23 01:15:00
6:35 PM,46.4,23.0,40,30.13,10.0,SSW,8.1,-,N/A,,Clear,200,2013-01-23 01:35:00
6:55 PM,44.6,23.0,43,30.13,10.0,SSW,9.2,-,N/A,,Clear,210,2013-01-23 01:55:00
7:15 PM,42.8,21.2,42,30.14,10.0,SSW,10.4,-,N/A,,Clear,200,2013-01-23 02:15:00
7:35 PM,41.0,19.4,42,30.14,10.0,SSW,9.2,-,N/A,,Clear,200,2013-01-23 02:35:00
7:55 PM,39.2,19.4,45,30.14,10.0,South,9.2,-,N/A,,Clear,190,2013-01-23 02:55:00
8:15 PM,41.0,17.6,39,30.16,10.0,SW,6.9,-,N/A,,Clear,220,2013-01-23 03:15:00
8:35 PM,39.2,15.8,39,30.16,10.0,SW,6.9,-,N/A,,Clear,220,2013-01-23 03:35:00
8:55 PM,41.0,14.0,33,30.17,10.0,SW,8.1,-,N/A,,Clear,220,2013-01-23 03:55:00
9:15 PM,41.0,14.0,33,30.18,10.0,SW,8.1,-,N/A,,Clear,220,2013-01-23 04:15:00
9:35 PM,44.6,14.0,29,30.18,10.0,SW,9.2,-,N/A,,Clear,220,2013-01-23 04:35:00
9:55 PM,42.8,14.0,31,30.18,10.0,SW,9.2,-,N/A,,Clear,220,2013-01-23 04:55:00
10:15 PM,42.8,14.0,31,30.19,10.0,SW,10.4,-,N/A,,Clear,230,2013-01-23 05:15:00
10:35 PM,44.6,12.2,27,30.19,10.0,SW,8.1,-,N/A,,Clear,230,2013-01-23 05:35:00
10:55 PM,39.2,14.0,36,30.20,10.0,WSW,6.9,-,N/A,,Clear,240,2013-01-23 05:55:00
11:15 PM,41.0,14.0,33,30.20,10.0,WSW,8.1,-,N/A,,Clear,250,2013-01-23 06:15:00
11:35 PM,39.2,12.2,33,30.20,10.0,SW,10.4,-,N/A,,Clear,230,2013-01-23 06:35:00
11:55 PM,39.2,14.0,36,30.20,10.0,SW,11.5,-,N/A,,Clear,230,2013-01-23 06:55:00